FW5156 Weather Reports


Display with metric or nautical units.
time (UTC)temp
F
wind
direction
speed
MPH
gust
MPH
rain 1hr
in
rain 24hr
in
rain mn
in
humidity
%
barometer
mb
20260906231516 77 0.0 0.0 0.00 0.00 0.00 59 1016.3
20260906230516 78 0.0 0.0 0.00 0.00 0.00 56 1016.3
20260906225516 79 0.0 0.0 0.00 0.00 0.00 55 1016.4
20260906224516 80 0.0 2.0 0.00 0.00 0.00 52 1016.4
20260906223536 81 0.0 0.0 0.00 0.00 0.00 51 1016.4
20260906222516 81 0.0 1.0 0.00 0.00 0.00 51 1016.5
20260906221516 81 0.0 4.0 0.00 0.00 0.00 50 1016.4
20260906220516 82 0.0 1.0 0.00 0.00 0.00 47 1016.6
20260906215516 82 0.0 1.0 0.00 0.00 0.00 46 1016.7
20260906214516 83 0.0 2.0 0.00 0.00 0.00 46 1016.7
20260906213516 83 0.0 5.0 0.00 0.00 0.00 45 1016.8
20260906212516 83 0.0 1.0 0.00 0.00 0.00 45 1016.8
20260906211516 83 0.0 1.0 0.00 0.00 0.00 42 1016.9
20260906210536 83 0.0 1.0 0.00 0.00 0.00 45 1016.9
20260906205516 84 0.0 0.0 0.00 0.00 0.00 44 1016.9
20260906204516 84 0.0 1.0 0.00 0.00 0.00 43 1017.0
20260906203516 85 0.0 3.0 0.00 0.00 0.00 41 1017.1
20260906202516 85 0.0 0.0 0.00 0.00 0.00 44 1017.0
20260906201556 85 0.0 2.0 0.00 0.00 0.00 42 1017.1
20260906200516 84 113 1.0 6.0 0.00 0.00 0.00 45 1017.0
20260906195536 84 0.0 6.0 0.00 0.00 0.00 45 1017.0
20260906194516 85 0.0 4.0 0.00 0.00 0.00 45 1017.0
20260906193516 84 0.0 2.0 0.00 0.00 0.00 48 1017.2
20260906192516 84 0.0 2.0 0.00 0.00 0.00 46 1017.2
20260906191516 83 0.0 4.0 0.00 0.00 0.00 50 1017.2
20260906190536 84 0.0 5.0 0.00 0.00 0.00 49 1017.4
20260906185516 83 0.0 4.0 0.00 0.00 0.00 49 1017.3
20260906184516 82 0.0 2.0 0.00 0.00 0.00 53 1017.2
20260906183516 83 0.0 4.0 0.00 0.00 0.00 53 1017.3
20260906182516 82 90 1.0 5.0 0.00 0.00 0.00 56 1017.2
20260906181516 82 90 1.0 4.0 0.00 0.00 0.00 56 1017.4
20260906180516 83 0.0 1.0 0.00 0.00 0.00 56 1017.4
20260906175556 83 0.0 4.0 0.00 0.00 0.00 57 1017.4
20260906174516 81 0.0 4.0 0.00 0.00 0.00 58 1017.4
20260906173536 81 0.0 2.0 0.00 0.00 0.00 58 1017.6
20260906172536 81 0.0 2.0 0.00 0.00 0.00 57 1017.8
20260906171516 81 0.0 1.0 0.00 0.00 0.00 58 1017.9
20260906170536 81 0.0 1.0 0.00 0.00 0.00 56 1018.0
20260906165516 80 0.0 5.0 0.00 0.00 0.00 58 1018.0
20260906164516 80 0.0 3.0 0.00 0.00 0.00 59 1017.9
20260906163536 79 0.0 4.0 0.00 0.00 0.00 62 1017.9
20260906162516 79 0.0 4.0 0.00 0.00 0.00 62 1018.0
20260906161536 78 0.0 5.0 0.00 0.00 0.00 63 1018.1
20260906160516 78 0.0 4.0 0.00 0.00 0.00 62 1018.2
20260906155516 78 0.0 3.0 0.00 0.00 0.00 62 1018.4
20260906154536 78 0.0 4.0 0.00 0.00 0.00 66 1018.2
20260906153516 77 0.0 1.0 0.00 0.00 0.00 68 1018.3
20260906152516 76 0.0 3.0 0.00 0.00 0.00 69 1018.3
20260906151516 76 0.0 5.0 0.00 0.00 0.00 69 1018.3
20260906150556 75 0.0 4.0 0.00 0.00 0.00 70 1018.3
20260906145516 75 0.0 3.0 0.00 0.00 0.00 69 1018.3
20260906144516 74 0.0 3.0 0.00 0.00 0.00 71 1018.3
20260906143516 74 0.0 4.0 0.00 0.00 0.00 71 1018.1
20260906142516 74 0.0 1.0 0.00 0.00 0.00 71 1017.9
20260906141516 73 0.0 4.0 0.00 0.00 0.00 74 1018.0
20260906140516 72 0.0 4.0 0.00 0.00 0.00 74 1017.7
20260906135516 72 0.0 2.0 0.00 0.00 0.00 77 1017.7
20260906134516 71 0.0 3.0 0.00 0.00 0.00 77 1017.8
20260906133536 71 0.0 3.0 0.00 0.00 0.00 77 1017.9
20260906132516 70 0.0 2.0 0.00 0.00 0.00 79 1017.6
20260906131516 69 0.0 4.0 0.00 0.00 0.00 81 1017.4
20260906130516 68 90 1.0 5.0 0.00 0.00 0.00 81 1017.3
20260906125516 68 113 1.0 4.0 0.00 0.00 0.00 83 1017.2
20260906124516 67 0.0 1.0 0.00 0.01 0.00 83 1017.0
20260906123516 66 0.0 0.0 0.00 0.01 0.00 83 1017.0
20260906122536 66 0.0 0.0 0.00 0.04 0.00 83 1016.8
20260906121516 67 0.0 0.0 0.00 0.04 0.00 83 1016.6
20260906120516 67 0.0 0.0 0.00 0.04 0.00 83 1016.6
20260906115516 67 0.0 2.0 0.00 0.04 0.00 82 1016.4
20260906114516 67 0.0 0.0 0.00 0.04 0.00 82 1016.3
20260906113516 67 0.0 0.0 0.00 0.04 0.00 82 1016.4
20260906112516 67 0.0 2.0 0.00 0.04 0.00 82 1016.3
20260906111516 67 0.0 0.0 0.00 0.04 0.00 83 1016.3
20260906110516 67 0.0 0.0 0.00 0.04 0.00 84 1016.2
20260906105516 67 0.0 0.0 0.00 0.04 0.00 84 1016.1
20260906104536 67 0.0 0.0 0.00 0.04 0.00 84 1016.0
20260906103516 67 0.0 0.0 0.00 0.04 0.00 85 1016.0
20260906102516 67 0.0 0.0 0.00 0.04 0.00 85 1015.8
20260906101516 67 0.0 0.0 0.00 0.04 0.00 84 1016.0
20260906100516 67 0.0 0.0 0.00 0.04 0.00 84 1015.9
20260906095516 68 0.0 2.0 0.00 0.04 0.00 84 1015.7
20260906094516 68 0.0 0.0 0.00 0.04 0.00 83 1015.6
20260906093516 68 0.0 0.0 0.00 0.04 0.00 83 1015.7
20260906092516 69 0.0 0.0 0.00 0.04 0.00 85 1015.4
20260906091536 69 0.0 1.0 0.00 0.04 0.00 85 1015.5
20260906090536 70 0.0 4.0 0.00 0.04 0.00 86 1015.6
20260906085516 70 0.0 0.0 0.00 0.04 0.00 87 1015.6
20260906084536 71 0.0 0.0 0.00 0.04 0.00 88 1015.5
20260906083516 72 0.0 3.0 0.00 0.04 0.00 91 1015.3
20260906082516 72 0 1.0 5.0 0.00 0.04 0.00 92 1015.4
20260906081536 72 0.0 0.0 0.00 0.04 0.00 93 1015.3
20260906080516 72 0.0 2.0 0.00 0.04 0.00 93 1015.2
20260906075516 72 0.0 2.0 0.00 0.04 0.00 93 1015.2
20260906074536 72 0.0 0.0 0.00 0.04 0.00 93 1015.2
20260906073516 72 0.0 1.0 0.00 0.04 0.00 93 1015.2
20260906072516 72 0.0 0.0 0.00 0.04 0.00 93 1015.1
20260906071516 72 0.0 0.0 0.00 0.04 0.00 93 1015.1
20260906070516 73 0.0 0.0 0.00 0.04 0.00 93 1015.2
20260906065516 73 0.0 0.0 0.00 0.04 0.00 93 1015.2
20260906064516 73 0.0 0.0 0.00 0.04 0.00 92 1015.3
20260906063536 73 0.0 0.0 0.00 0.04 0.00 92 1015.2
20260906062516 73 0.0 2.0 0.00 0.04 0.00 92 1015.3
20260906061516 73 0.0 0.0 0.00 0.04 0.00 92 1015.2
20260906060516 74 0.0 0.0 0.00 0.04 0.00 92 1015.2
20260906055516 74 0.0 2.0 0.00 0.04 0.00 91 1015.3
20260906054516 74 0.0 2.0 0.00 0.04 0.00 91 1015.1
20260906053516 74 0.0 0.0 0.00 0.04 0.00 91 1015.0
20260906052556 74 0.0 0.0 0.00 0.04 0.00 91 1014.9
20260906051516 75 0.0 0.0 0.00 0.04 0.00 91 1015.0
20260906050536 75 0.0 1.0 0.00 0.04 0.00 90 1014.9
20260906045516 75 0.0 0.0 0.00 0.04 0.00 90 1014.8
20260906044516 75 0.0 0.0 0.00 0.04 0.00 90 1014.6
20260906043516 76 0.0 0.0 0.00 0.04 0.00 90 1014.5
20260906042516 76 0.0 0.0 0.00 0.04 0.00 89 1014.5
20260906041516 76 0.0 0.0 0.00 0.04 0.00 89 1014.5
20260906040516 76 0.0 0.0 0.00 0.04 0.00 89 1014.5
20260906035516 76 0.0 0.0 0.00 0.04 0.04 89 1014.5
20260906034516 76 0.0 0.0 0.00 0.04 0.04 89 1014.4
20260906033556 76 0.0 0.0 0.00 0.04 0.04 89 1014.3
20260906032516 76 0.0 0.0 0.00 0.04 0.04 89 1014.2
20260906031516 77 0.0 0.0 0.00 0.04 0.04 89 1014.1
20260906030516 77 0.0 0.0 0.00 0.04 0.04 89 1014.1
20260906025516 77 0.0 0.0 0.00 0.04 0.04 89 1014.0
20260906024516 77 0.0 0.0 0.00 0.04 0.04 89 1013.9
20260906023516 77 0.0 0.0 0.00 0.04 0.04 89 1013.9
20260906022516 77 0.0 0.0 0.00 0.04 0.04 88 1013.7
20260906021536 77 0.0 0.0 0.00 0.04 0.04 88 1013.6
20260906020556 77 0.0 0.0 0.00 0.04 0.04 88 1013.5
20260906015516 77 0.0 0.0 0.00 0.04 0.04 88 1013.2
20260906014556 77 0.0 0.0 0.00 0.04 0.04 88 1013.2
20260906013516 77 0.0 0.0 0.00 0.04 0.04 87 1013.0
20260906012516 77 0.0 0.0 0.00 0.04 0.04 87 1013.0
20260906011516 77 0.0 0.0 0.00 0.04 0.04 87 1012.8
20260906010516 77 0.0 0.0 0.00 0.04 0.04 86 1012.6
20260906005516 77 0.0 0.0 0.00 0.04 0.04 86 1012.5
20260906004536 77 0.0 0.0 0.00 0.04 0.04 87 1012.3
20260906003516 78 0.0 0.0 0.00 0.04 0.04 86 1012.4
20260906002516 78 0.0 0.0 0.00 0.04 0.04 86 1012.3
20260906001516 79 0.0 0.0 0.00 0.04 0.04 85 1012.4
20260906000516 79 0.0 0.0 0.00 0.04 0.04 85 1012.5
20260905235516 79 0.0 0.0 0.00 0.04 0.04 84 1012.4
20260905234516 80 0.0 0.0 0.00 0.04 0.04 84 1012.5
20260905233516 81 0.0 0.0 0.00 0.04 0.04 85 1012.5
20260905232516 81 0.0 0.0 0.00 0.04 0.04 85 1012.6